GFSNW_prec_cthk_024.txt.gz
RH
44 36 27 22 26 44 49 51 43 36 40 44 44 51 40 38 44 36 36 44 40 38 44 35 36 35 42 34 26 30 29 32 40 35 37 30 34 44 38 50 35 44 44 28
51 43 34 24 34 52 55 53 48 54 44 39 46 44 44 37 42 43 34 39 41 32 38 42 33 40 44 37 30 28 35 30 34 30 45 34 26 22 24 43 45 43 53 32
61 50 46 30 33 54 59 55 57 73 56 34 46 44 44 39 40 42 39 38 41 35 27 32 34 37 39 35 31 26 28 29 29 38 38 51 59 42 31 34 47 40 33 24
66 60 52 40 41 62 63 59 46 60 58 44 47 48 41 42 42 34 49 41 31 34 33 36 38 43 43 34 28 27 28 30 30 33 38 52 55 46 39 37 33 38 30 30
73 64 59 48 52 74 69 54 46 49 54 48 50 49 45 45 44 37 49 50 38 38 37 35 43 45 45 42 40 33 34 40 37 35 34 37 37 39 33 30 32 35 29 32
77 71 56 49 64 85 60 57 52 62 57 53 56 45 48 50 47 41 45 42 42 39 48 45 45 49 62 53 51 48 47 49 43 40 35 34 35 30 26 25 26 28 30 26
78 69 53 56 67 73 55 65 63 72 61 53 44 51 55 58 38 61 55 48 48 50 45 41 38 39 47 51 51 50 54 50 45 48 45 47 25 24 23 23 22 22 24 27
76 62 50 73 87 85 66 75 79 76 76 52 54 54 56 49 41 67 56 52 55 48 40 37 38 42 43 47 46 45 45 44 48 60 44 31 28 27 25 25 26 26 26 26
69 58 57 91 98 90 75 70 74 94 77 65 47 50 59 51 57 80 59 57 51 47 43 42 38 43 33 42 42 36 38 44 48 46 55 56 36 31 27 25 30 28 28 29
69 54 74 90 90 79 82 85 88 99 79 75 67 51 50 52 64 81 57 53 46 43 47 49 43 41 34 46 45 47 48 50 54 52 57 46 32 29 27 31 39 35 34 32
63 46 69 88 95 84 85 84 92 91 79 64 66 59 47 57 72 69 58 55 49 49 48 48 43 48 42 37 34 39 39 47 53 52 62 55 29 29 32 40 36 32 32 33
55 45 78 88 92 88 83 91 79 91 98 74 64 61 51 51 67 53 51 47 44 42 44 41 47 49 48 39 42 32 43 38 45 39 44 36 33 32 32 33 33 33 35 37
59 73 83 90 85 82 85 91 62 75 80 69 60 66 53 48 49 55 59 53 52 45 44 43 46 48 43 47 40 39 36 35 37 37 29 35 37 35 37 38 39 40 42 46
82 86 91 80 87 85 93 95 95 95 76 70 63 56 49 43 44 46 48 56 50 47 45 44 44 47 39 46 40 45 40 39 36 37 35 37 39 44 45 43 45 47 51 57
87 79 75 85 92 92 97 93 89 82 60 60 64 56 50 41 36 38 44 47 47 48 49 47 49 44 45 47 43 42 38 38 42 46 45 41 46 46 44 46 47 50 55 56
85 85 94 90 87 90 97 98 84 69 60 54 62 62 54 46 42 38 39 44 47 51 50 52 47 46 47 51 48 41 42 41 42 45 45 45 45 44 46 50 54 56 58 60
96 93 89 87 89 92 95 90 74 68 61 60 67 66 61 58 50 48 46 46 53 54 51 54 51 50 53 54 52 47 44 43 43 41 44 52 54 55 57 57 60 61 62 66
87 89 89 90 89 95 93 79 69 64 63 64 76 72 65 61 64 58 53 59 61 62 58 58 61 60 60 59 52 49 47 46 46 48 53 57 59 62 64 65 65 67 71 74
84 86 86 91 95 97 91 78 72 64 59 83 86 75 69 65 67 63 62 64 69 63 66 68 66 69 65 58 54 51 52 55 57 59 60 64 66 68 69 70 74 78 80 79
82 82 86 96 96 94 89 82 75 71 83 93 84 81 74 65 69 71 69 69 72 75 73 72 71 69 64 63 61 61 63 65 65 67 70 73 73 75 79 83 85 81 79 75
89 87 93 98 93 89 87 84 79 85 96 88 85 89 85 79 78 77 83 84 84 81 78 77 74 71 68 65 66 68 70 72 72 72 74 77 81 85 87 85 80 74 66 60
83 79 84 88 92 93 89 80 85 95 95 87 82 80 81 82 82 86 89 85 82 79 74 76 70 68 66 70 73 76 78 75 74 75 79 85 86 86 85 77 72 66 60 53
76 80 88 93 93 95 93 82 81 94 88 85 80 78 76 76 76 77 77 78 80 70 76 69 69 72 76 82 82 78 76 78 80 84 87 89 85 79 73 68 63 59 53 49
86 90 95 95 94 97 95 95 93 89 86 81 79 79 78 76 76 77 75 79 76 80 80 72 80 83 84 82 79 81 84 85 89 89 82 79 76 73 65 58 56 53 46 39
95 97 98 99 98 96 95 93 90 87 85 81 79 78 79 82 82 82 85 88 88 85 83 85 84 84 85 87 90 93 92 91 89 85 82 79 74 64 60 58 50 42 37 36
98 98 98 98 97 97 95 93 92 91 90 90 90 91 91 94 94 93 92 93 90 88 88 87 86 90 92 95 96 93 93 94 90 85 79 75 67 61 53 44 41 42 43 44
97 97 98 98 98 97 97 97 97 98 96 95 94 95 95 94 95 95 94 92 90 93 94 96 98 98 98 97 96 94 93 88 85 78 70 62 58 51 49 49 50 49 52 54

GFSNW_prec_cthk_027.txt.gz
RH
45 44 37 31 25 27 31 43 54 32 44 50 54 50 42 36 39 44 45 43 34 28 42 44 29 31 38 37 43 47 52 48 54 48 38 38 36 37 48 53 37 49 50 38
49 51 38 40 32 29 32 51 51 49 48 42 49 40 39 37 44 46 42 40 31 31 47 61 40 44 47 49 48 40 33 36 46 40 34 37 40 33 34 44 47 48 53 38
60 59 49 51 37 32 43 52 63 59 53 31 38 41 32 39 42 49 42 38 33 34 48 52 52 46 50 42 42 39 35 32 34 37 26 37 46 43 47 33 49 46 48 36
62 64 55 56 49 36 51 56 53 44 53 50 39 40 34 40 48 47 42 40 34 39 37 43 48 46 44 39 34 31 31 31 27 28 27 38 45 48 58 48 42 47 40 38
61 66 66 63 54 46 61 59 44 44 48 50 45 39 35 38 44 46 43 45 30 37 42 35 40 43 40 37 36 30 26 34 30 29 28 34 39 43 46 46 38 36 35 39
63 64 73 62 60 59 65 63 50 44 49 57 52 35 33 38 40 44 42 39 40 34 38 41 44 43 42 44 45 41 39 41 42 41 35 32 32 26 28 30 31 32 33 34
60 70 73 65 63 63 66 63 58 60 52 63 39 39 34 40 43 47 41 39 44 45 43 46 48 49 49 51 67 56 50 54 57 55 43 37 29 27 26 28 29 29 30 30
63 74 74 64 62 72 75 71 75 75 66 51 54 42 40 44 45 53 48 45 45 46 43 52 63 63 49 46 52 57 56 57 61 55 50 35 32 30 29 28 31 28 28 29
69 72 78 66 56 78 73 78 76 80 81 54 39 43 45 52 61 63 58 58 56 50 67 56 59 56 40 43 41 43 46 50 48 52 52 48 39 32 29 27 39 31 30 30
73 75 77 66 46 79 76 86 74 68 82 76 56 45 40 52 59 61 57 64 65 54 59 64 53 43 36 46 46 46 49 51 52 59 56 47 37 31 28 33 37 32 32 32
88 87 75 57 40 70 74 84 71 75 82 82 66 53 52 65 57 62 61 68 80 67 59 62 49 48 41 47 45 42 41 49 51 56 60 52 29 28 28 35 33 33 32 30
88 82 68 50 50 74 78 86 76 90 89 86 79 65 65 59 53 59 63 66 71 48 44 45 46 51 49 44 49 38 41 36 41 39 42 30 28 29 31 32 31 33 35 37
80 75 58 46 61 74 81 86 81 91 96 94 88 75 64 64 64 56 56 62 68 51 37 45 48 49 44 49 45 37 36 35 40 37 35 34 32 33 34 33 34 37 37 37
71 60 51 48 60 67 72 78 79 96 98 98 92 81 73 72 64 57 61 63 62 52 40 45 43 45 40 43 39 39 38 36 38 38 35 38 41 42 42 43 42 40 44 43
55 53 52 73 74 80 87 92 82 96 98 98 96 82 73 72 71 67 62 65 60 50 47 49 47 44 44 44 44 43 38 39 39 43 38 37 43 43 44 44 46 46 46 49
53 61 74 87 91 94 93 92 91 97 96 98 92 86 79 68 68 67 66 63 60 54 54 58 50 45 43 49 52 43 40 39 38 41 41 42 44 46 44 44 47 51 54 57
69 76 83 93 96 96 93 95 98 95 95 95 93 87 80 69 61 59 54 55 57 51 53 56 52 50 50 52 53 46 46 46 46 47 45 48 45 47 49 53 57 57 59 60
81 83 95 97 96 98 98 98 96 86 85 75 85 87 83 71 62 58 53 53 56 58 55 56 56 55 57 58 52 52 51 50 49 47 46 46 51 58 63 65 64 64 66 68
90 88 96 98 98 99 98 95 88 83 76 78 84 77 78 72 68 63 62 58 62 58 61 63 61 65 65 58 56 61 60 53 51 51 54 60 65 70 71 69 70 73 77 80
84 94 97 98 97 97 93 87 81 71 69 71 76 78 77 73 71 69 67 63 66 67 66 65 70 70 66 65 68 69 63 57 55 60 68 73 74 72 71 74 77 79 80 77
82 83 82 83 88 85 77 80 75 72 70 66 74 93 89 78 74 71 70 71 70 72 71 75 76 75 76 74 74 72 71 66 68 72 75 75 75 78 80 82 83 81 76 72
83 81 80 83 83 83 86 87 87 84 77 71 82 88 91 85 81 82 84 81 81 84 80 82 83 79 78 79 79 77 76 77 78 78 80 82 84 84 83 81 80 78 73 68
86 82 81 84 80 83 82 80 76 71 70 75 83 96 97 97 88 88 88 87 86 80 82 81 80 80 78 78 77 78 80 80 83 84 84 84 85 85 86 82 78 73 69 62
82 83 88 92 94 83 80 80 79 75 70 82 87 92 91 90 90 88 87 91 89 91 88 82 82 81 80 79 81 86 87 86 85 85 87 87 89 84 81 78 75 69 66 60
91 88 91 89 87 87 85 86 83 80 79 85 92 91 89 89 86 86 85 86 84 82 82 83 83 85 89 90 89 87 87 88 87 85 87 87 83 80 78 75 70 67 56 45
90 88 89 88 89 92 94 97 96 91 87 92 92 91 92 92 92 92 90 89 89 88 91 94 94 95 93 91 91 94 95 95 95 91 86 84 82 79 75 70 59 49 45 45
95 96 95 97 96 98 97 98 98 98 96 97 96 98 98 98 98 98 98 98 98 97 97 97 98 95 96 98 97 98 97 97 90 87 85 82 78 71 67 58 52 53 56 56

GFSNW_prec_cthk_030.txt.gz
RH
49 49 39 30 39 39 34 41 49 38 37 67 53 50 50 38 31 42 53 48 42 32 27 34 34 31 27 29 36 46 49 55 64 49 42 45 42 36 41 57 49 58 52 38
46 50 47 32 39 38 39 45 52 52 34 57 55 50 52 46 36 44 51 49 43 33 32 37 40 34 30 35 36 42 48 51 62 48 50 39 38 42 43 47 56 52 54 45
55 48 49 37 45 44 46 52 63 65 51 37 43 50 44 40 36 45 52 53 48 40 35 38 45 39 37 36 40 49 47 46 37 40 32 35 37 37 45 51 55 51 48 38
58 54 45 47 51 49 52 63 58 46 52 45 47 45 42 36 38 43 49 55 50 43 41 41 48 48 45 44 49 54 50 46 41 36 30 29 29 37 35 43 48 52 34 44
58 54 43 55 54 60 60 70 56 48 44 37 38 49 40 33 29 37 49 51 48 39 41 39 47 52 48 44 45 46 47 48 43 39 36 29 26 32 34 42 54 55 44 41
53 48 50 60 60 69 64 67 60 59 45 41 41 39 39 27 28 35 45 49 50 38 40 45 44 44 45 44 41 44 44 45 42 37 33 30 34 23 28 31 45 45 47 44
50 49 58 64 64 73 59 65 69 62 52 50 36 35 35 24 29 32 47 52 51 41 41 45 45 46 49 44 39 42 49 61 54 54 46 46 27 23 24 29 30 31 34 35
54 60 69 74 70 74 60 72 76 71 55 45 48 44 38 26 33 36 47 52 48 46 44 51 53 51 46 44 47 49 58 68 68 62 61 45 30 28 27 31 37 34 34 34
65 62 70 72 75 66 55 75 70 74 74 48 46 53 39 33 36 44 55 60 57 56 62 53 51 54 50 55 50 49 48 60 62 70 60 51 32 29 32 34 45 36 35 35
62 56 62 68 70 71 53 79 87 77 72 64 49 46 36 40 41 44 61 64 62 61 64 64 56 57 46 60 51 46 49 57 58 66 59 43 32 34 32 34 34 35 34 33
63 56 63 67 74 66 53 80 80 74 66 68 67 44 37 42 38 45 58 64 62 67 69 67 60 56 52 54 40 37 38 51 56 62 61 49 34 34 34 32 32 31 30 30
67 62 74 74 72 63 54 72 71 70 98 92 80 63 38 38 37 45 61 54 58 64 58 60 62 64 57 43 48 39 38 35 40 40 39 31 28 28 28 27 28 31 33 34
73 74 86 79 70 63 49 83 89 86 97 97 84 69 48 45 42 49 58 61 58 59 61 69 64 56 55 45 41 39 36 34 38 38 36 35 32 31 31 30 31 34 38 37
76 83 89 78 73 60 49 83 84 79 91 89 90 81 58 46 45 61 68 63 58 60 63 69 66 58 44 40 34 36 34 35 38 41 42 40 39 37 36 37 39 40 40 41
82 75 71 66 62 55 76 95 91 94 81 78 81 86 74 54 61 62 66 71 59 58 59 68 65 53 49 44 39 37 32 35 38 40 37 38 41 42 44 44 46 46 46 47
85 79 71 66 56 72 95 98 91 71 83 96 98 90 82 71 71 73 72 68 63 57 66 73 61 53 46 46 47 35 34 34 33 37 37 38 42 45 47 48 49 49 48 50
80 76 69 57 54 62 78 79 73 87 98 96 98 94 84 87 87 95 90 76 70 60 65 68 67 64 55 52 49 41 41 41 38 39 40 46 46 49 51 50 51 52 56 60
74 70 61 60 68 80 90 91 93 92 96 96 98 98 96 87 89 87 89 83 78 80 79 76 75 71 62 58 51 48 48 47 49 49 48 49 53 55 52 54 58 62 66 68
56 49 56 67 80 83 78 80 93 97 94 99 98 98 95 89 84 80 79 79 86 84 81 80 75 72 67 59 54 53 53 54 58 59 57 56 56 56 61 66 70 72 73 71
71 69 69 66 69 93 98 98 98 99 98 96 96 96 93 84 83 85 83 82 80 75 74 69 69 70 67 64 62 62 65 64 69 69 64 62 62 68 74 78 79 78 76 77
86 93 98 97 96 97 99 98 96 91 89 92 93 87 85 85 83 83 80 77 72 72 71 71 71 68 67 67 70 73 73 75 77 73 72 71 74 79 83 85 83 81 80 75
96 93 93 95 98 98 94 90 84 82 75 67 71 73 70 69 69 73 78 77 77 76 73 75 73 71 73 76 81 81 87 88 84 80 80 83 85 87 86 86 84 80 77 80
97 96 97 93 88 88 85 85 79 77 73 71 65 66 80 90 84 85 85 85 87 81 83 82 80 84 82 84 89 94 90 86 85 87 88 89 89 87 87 82 83 85 80 74
81 86 91 84 87 86 87 86 86 82 78 72 78 90 90 91 94 97 96 98 95 94 89 84 85 87 87 87 89 89 89 90 91 92 94 92 89 87 88 87 83 78 77 74
81 81 91 92 91 90 89 84 79 78 80 79 82 87 92 98 98 96 93 94 92 90 89 91 93 92 90 90 91 91 93 94 94 92 91 92 95 93 88 85 82 77 76 72
92 94 93 93 93 91 88 86 88 89 87 87 86 85 88 94 94 91 94 90 90 88 89 89 89 90 92 95 96 97 97 95 91 92 96 94 89 86 82 80 78 75 71 64
98 99 99 94 93 92 91 97 99 98 97 96 92 95 97 98 98 97 96 96 95 93 95 97 98 98 98 98 98 98 95 93 96 96 91 88 86 86 85 79 76 70 67 65

GFSNW_prec_cthk_033.txt.gz
RH
52 50 54 50 40 39 41 40 39 35 35 53 52 48 52 46 39 46 52 50 44 38 33 30 29 31 31 30 40 40 38 38 47 43 48 48 47 53 53 55 47 61 57 43
66 68 57 51 46 42 43 42 43 46 35 48 47 44 49 44 35 37 44 51 47 42 37 34 30 32 34 35 34 38 39 42 51 49 49 46 44 45 46 48 52 49 59 47
79 78 60 62 52 48 50 50 53 59 58 27 40 47 47 48 33 33 39 48 52 47 40 35 36 37 38 37 35 35 36 43 48 55 45 49 49 43 44 46 58 48 46 32
90 83 69 62 51 52 58 54 50 48 55 37 40 42 44 45 35 35 37 45 53 54 49 42 39 40 40 36 36 38 38 44 48 45 40 40 34 37 44 40 38 44 38 43
82 84 77 67 60 54 66 62 53 56 44 41 39 43 44 43 42 38 40 39 47 53 54 45 42 40 42 39 38 39 43 52 49 48 44 42 38 35 32 33 37 37 41 48
88 88 77 70 61 55 70 62 58 57 50 47 50 32 37 36 44 42 36 35 44 53 54 49 41 43 41 48 48 46 48 50 49 46 44 40 42 33 31 27 27 33 40 44
92 89 79 68 62 43 62 56 59 66 55 56 38 37 42 35 42 36 25 39 47 51 57 52 47 45 54 60 57 51 51 51 53 53 44 49 31 28 27 25 23 23 27 34
95 87 73 60 51 47 68 59 62 67 69 51 48 47 39 36 41 41 26 41 39 58 63 63 63 61 57 59 61 56 46 47 51 55 61 52 41 35 32 29 30 29 32 34
93 83 72 54 50 61 72 71 58 72 74 61 51 44 45 37 37 42 31 35 53 57 68 73 67 66 61 61 62 59 50 42 52 61 59 58 46 43 36 33 42 33 35 36
87 77 62 50 55 66 75 74 67 63 63 67 69 58 44 39 32 36 34 46 58 61 71 76 66 65 55 59 61 53 54 56 58 59 54 46 35 36 36 40 34 37 39 39
79 66 53 55 65 74 73 76 77 61 57 64 62 65 51 49 37 32 31 56 63 66 73 72 70 75 58 55 51 45 52 62 57 53 53 45 33 34 33 32 37 38 40 37
65 59 58 63 66 78 76 88 86 72 75 83 62 63 52 38 41 28 34 43 57 58 70 71 75 72 63 54 55 44 48 42 36 36 37 29 28 28 31 34 34 32 31 32
61 65 64 69 71 81 86 80 82 69 70 73 71 72 65 38 35 41 39 46 55 57 57 68 73 71 63 59 51 47 47 35 31 32 30 30 27 26 26 28 28 30 32 35
67 64 61 66 66 90 96 83 82 76 73 62 46 64 60 55 34 46 42 52 55 63 67 72 72 71 62 56 47 54 45 33 34 36 33 33 31 30 30 31 32 34 37 39
64 65 65 73 78 94 82 77 82 79 62 59 65 84 83 66 37 46 52 51 61 69 71 68 71 72 66 62 60 56 46 33 33 35 30 31 33 35 35 35 38 41 43 44
67 71 76 81 88 90 97 92 85 76 70 88 99 89 85 76 49 48 49 55 66 67 68 75 72 69 69 72 70 53 49 36 29 30 34 36 38 39 40 41 43 46 48 49
83 87 87 78 76 80 90 75 68 67 92 97 95 95 91 80 65 61 58 53 65 69 72 74 72 64 62 64 66 55 49 42 38 38 40 45 44 44 46 48 50 53 54 55
94 97 92 80 71 69 82 80 76 72 94 96 94 88 83 84 73 77 71 71 73 82 82 83 79 69 66 63 61 56 55 52 50 48 47 47 50 53 55 56 58 60 59 60
81 80 80 75 62 56 68 94 98 89 96 93 89 91 96 97 83 84 82 84 95 96 88 84 84 77 72 65 67 68 68 64 60 59 59 59 61 63 63 64 65 61 65 71
76 72 63 77 68 69 85 98 95 89 89 78 87 88 88 98 88 92 97 95 95 98 94 95 94 89 82 81 78 75 71 67 63 65 70 72 76 77 74 71 70 72 77 81
71 72 69 70 89 92 96 98 99 91 91 90 88 88 93 98 93 97 96 96 96 95 95 93 95 89 80 79 78 76 71 70 73 74 78 83 85 86 85 82 80 84 87 89
77 82 82 81 79 88 97 98 95 96 98 97 94 92 98 98 95 89 89 90 87 89 87 85 82 74 71 71 68 66 67 69 73 81 85 93 96 92 89 87 91 92 90 81
90 87 97 96 98 99 97 93 92 92 86 87 94 96 96 96 96 95 93 93 92 85 82 82 74 71 70 70 70 72 74 77 82 88 95 95 94 93 92 93 92 88 83 86
87 89 98 99 98 97 96 93 87 79 77 76 78 83 82 84 87 91 83 83 80 80 77 74 75 76 80 83 85 89 95 97 97 94 90 92 94 96 97 91 86 89 84 81
98 98 97 96 95 95 94 91 89 84 82 80 79 78 81 82 84 87 88 87 84 83 83 84 85 88 89 90 92 94 94 93 93 95 96 97 96 91 90 93 88 87 84 77
92 94 94 95 94 93 89 86 83 82 82 84 83 84 87 95 96 95 96 94 90 89 90 91 92 94 96 95 94 95 96 97 97 97 97 97 97 97 95 91 84 80 80 78
89 95 94 91 90 89 88 87 89 88 89 91 91 88 90 92 95 95 97 96 96 95 96 97 96 96 97 98 99 97 97 97 97 97 98 97 96 93 88 84 85 83 80 79

GFSNW_prec_cthk_036.txt.gz
RH
78 75 65 42 57 57 47 44 43 28 27 49 46 52 50 42 38 47 56 52 51 44 40 38 32 28 25 25 29 36 39 44 47 43 47 45 43 45 47 58 51 66 61 44
89 79 77 54 64 64 49 52 48 40 29 48 40 44 55 45 40 42 52 49 48 49 43 39 34 27 26 29 32 37 41 44 50 43 42 44 45 46 49 55 59 59 54 39
98 86 84 69 67 71 54 58 60 63 50 25 34 39 48 54 43 47 45 47 53 53 48 42 36 31 34 34 36 37 40 43 42 45 42 47 44 47 50 49 55 49 48 35
98 94 89 82 79 75 61 66 59 47 56 40 36 36 37 46 42 44 43 46 54 59 53 48 42 38 39 38 38 40 39 39 42 43 49 47 43 42 47 43 41 44 34 37
98 97 90 90 85 81 75 70 59 52 41 33 40 45 38 41 37 41 49 45 38 58 59 50 45 44 42 37 41 41 40 41 41 48 50 46 40 38 37 36 33 31 33 31
99 98 92 96 98 91 70 69 58 52 44 47 44 34 36 39 34 38 50 32 21 48 49 49 52 49 51 46 45 40 41 46 52 55 57 51 46 33 30 29 28 29 33 29
99 98 92 97 96 78 57 54 62 58 53 52 35 37 38 44 32 36 44 36 29 35 57 57 60 58 55 49 46 49 50 48 56 64 58 54 31 29 29 32 26 26 25 24
98 98 93 93 90 79 66 58 65 61 61 52 49 48 39 43 36 33 39 39 35 36 52 62 69 69 61 58 51 55 55 60 66 66 62 46 33 31 42 40 34 28 26 27
98 97 93 91 90 86 78 62 64 66 65 56 53 53 46 45 38 32 35 42 37 44 58 74 80 79 67 68 55 55 60 64 65 67 56 50 33 33 36 39 37 33 30 33
98 97 94 94 96 93 66 52 67 72 74 62 56 47 48 47 40 32 30 37 51 43 63 75 79 81 72 73 60 57 64 71 67 69 59 45 38 30 30 36 29 29 31 34
98 98 95 93 94 88 63 53 68 74 76 70 70 58 48 43 38 34 33 48 49 54 62 77 78 82 77 76 62 55 55 66 71 68 60 56 33 28 31 30 28 28 32 33
98 97 98 98 91 77 66 55 65 73 86 70 76 78 61 50 41 32 34 35 39 38 57 76 80 80 80 71 68 56 54 47 54 53 50 45 27 23 22 26 30 33 34 35
98 98 97 92 78 70 60 57 71 77 81 76 81 72 75 67 53 44 38 42 37 38 41 61 72 77 75 70 63 59 56 48 47 45 43 36 25 24 23 23 26 29 30 29
98 97 90 81 74 68 57 67 80 81 89 88 83 76 70 62 58 49 35 46 40 38 53 59 64 75 68 67 60 61 57 50 46 45 43 33 27 25 25 25 26 27 28 29
83 73 69 67 67 72 66 71 90 97 93 78 86 68 60 70 55 50 41 46 52 51 59 67 70 72 73 72 69 66 62 53 51 50 46 30 25 26 28 29 30 31 31 34
82 77 74 74 71 77 79 87 82 90 97 95 96 82 72 71 64 62 47 43 52 48 64 73 76 71 71 73 76 60 60 55 50 48 41 33 29 32 33 36 37 37 39 42
71 69 69 69 72 81 77 85 83 75 82 93 99 83 76 76 76 76 68 44 57 52 59 80 77 78 77 80 73 55 57 61 58 58 53 52 44 39 40 41 43 45 46 49
64 66 68 72 92 88 87 81 91 84 90 90 75 67 56 59 78 84 75 52 58 69 67 73 80 81 80 75 60 58 60 64 65 62 57 53 52 49 48 49 50 52 55 58
74 90 92 90 94 86 74 75 88 84 79 71 70 70 94 93 98 95 81 63 67 67 70 76 79 80 80 67 61 61 64 60 61 62 65 61 62 60 59 60 62 64 67 70
79 74 73 71 65 62 72 98 97 89 83 70 78 92 96 89 88 99 90 80 79 81 73 77 84 79 76 75 71 71 74 69 72 72 76 73 71 68 70 70 76 80 82 82
63 62 58 58 67 95 97 98 99 91 80 70 77 88 95 94 93 92 98 97 96 90 84 82 82 80 79 76 80 82 82 82 81 78 78 76 74 73 78 84 86 87 86 88
81 93 80 85 94 96 96 98 98 88 87 84 77 78 87 93 94 94 98 93 98 95 91 93 90 93 98 95 95 95 92 88 81 77 77 77 77 78 84 87 89 95 96 93
92 90 92 89 94 90 91 94 97 96 86 91 92 93 95 94 93 98 99 98 98 95 98 98 96 97 97 97 92 89 86 81 80 81 78 76 81 89 93 92 98 97 94 90
90 91 82 80 85 96 97 98 98 97 98 97 98 99 99 98 98 98 98 98 96 97 97 93 93 91 90 90 88 87 88 87 87 87 86 89 99 98 98 97 97 95 90 95
93 97 92 96 98 98 98 97 91 89 86 89 89 92 91 95 97 98 98 96 96 94 95 94 89 87 86 86 87 90 94 95 96 97 98 98 97 96 96 96 94 95 93 89
96 97 98 98 98 97 97 97 96 95 94 92 89 92 90 90 89 84 91 95 95 90 89 89 89 91 95 98 99 100 99 98 97 97 95 96 95 96 95 93 93 92 91 87
95 95 97 97 95 93 92 90 91 90 90 91 89 89 88 86 88 88 89 91 93 95 96 97 99 99 99 99 98 97 94 95 96 96 95 95 95 95 96 96 93 90 88 87